Location: ??????????
(54.4061°N, 22.6114°E)
Time: 01:36:26
(UTC+00:00)

STARLINK-21 - Pass Details

Date: 23 October 2019
Orbit: 550 x 552 km, 53.0° (Epoch: 16 November)

Event Time Altitude Azimuth Distance (km) Brightness Sun altitude
Rises 17:45:36 0° 281° (W) 2,724 8.7 -22.6°
Reaches altitude 10° 17:47:53 10° 276° (W) 1,829 7.4 -22.9°
Enters shadow 17:51:52 49° 202° (SSW) 713 4.1 -23.5°
